TimeHST,TemperatureF,Dew PointF,Humidity,Sea Level PressureIn,VisibilityMPH,Wind Direction,Wind SpeedMPH,Gust SpeedMPH,PrecipitationIn,Events,Conditions,WindDirDegrees,DateUTC
12:54 AM,71.1,71.1,100,30.13,10.0,ENE,6.9,-,0.00,Rain,Light Rain,60,2012-11-13 10:54:00
1:54 AM,-9999,-9999,N/A,30.12,10.0,NE,4.6,-,0.00,Rain,Light Rain,50,2012-11-13 11:54:00
2:54 AM,-9999,-9999,N/A,30.10,10.0,NE,6.9,-,0.00,Rain,Light Rain,50,2012-11-13 12:54:00
3:54 AM,-9999,-9999,N/A,30.09,10.0,ENE,6.9,-,0.00,,Clear,60,2012-11-13 13:54:00
4:54 AM,-9999,-9999,N/A,30.09,10.0,NE,9.2,-,0.00,,Mostly Cloudy,40,2012-11-13 14:54:00
5:54 AM,-9999,-9999,N/A,30.10,10.0,NE,9.2,-,N/A,,Clear,40,2012-11-13 15:54:00
6:54 AM,71.6,66.2,83,30.12,10.0,NNE,6.9,-,N/A,,Clear,20,2012-11-13 16:54:00
7:54 AM,73.4,68.0,83,30.14,10.0,NE,8.1,-,0.00,,Scattered Clouds,40,2012-11-13 17:54:00
8:54 AM,77.0,66.2,69,30.14,10.0,NE,15.0,-,N/A,,Scattered Clouds,50,2012-11-13 18:54:00
9:54 AM,79.0,63.0,58,30.14,10.0,ENE,16.1,23.0,N/A,,Partly Cloudy,60,2012-11-13 19:54:00
10:54 AM,81.0,62.1,52,30.12,10.0,NE,20.7,27.6,N/A,,Scattered Clouds,50,2012-11-13 20:54:00
10:55 AM,81.0,62.1,52,30.12,10.0,NE,20.7,27.6,N/A,,Scattered Clouds,50,2012-11-13 20:55:00
11:54 AM,82.0,63.0,52,30.11,10.0,NE,15.0,26.5,N/A,,Partly Cloudy,50,2012-11-13 21:54:00
12:54 PM,82.9,63.0,51,30.09,10.0,NE,17.3,-,N/A,,Partly Cloudy,50,2012-11-13 22:54:00
1:54 PM,82.9,64.9,54,30.07,10.0,NE,23.0,26.5,N/A,,Scattered Clouds,40,2012-11-13 23:54:00
2:54 PM,81.0,63.0,54,30.06,10.0,NE,20.7,25.3,N/A,,Scattered Clouds,40,2012-11-14 00:54:00
3:54 PM,80.1,64.0,58,30.06,10.0,NE,18.4,26.5,N/A,,Scattered Clouds,50,2012-11-14 01:54:00
4:54 PM,78.1,64.9,64,30.08,10.0,ENE,15.0,20.7,N/A,,Scattered Clouds,60,2012-11-14 02:54:00
5:54 PM,75.0,64.9,71,30.10,10.0,NE,10.4,-,N/A,,Partly Cloudy,50,2012-11-14 03:54:00
6:54 PM,73.9,66.0,76,30.12,10.0,NE,6.9,-,0.00,Rain,Light Rain,50,2012-11-14 04:54:00
7:54 PM,73.0,66.9,81,30.13,10.0,NE,6.9,-,0.00,,Scattered Clouds,50,2012-11-14 05:54:00
8:54 PM,73.0,64.9,76,30.14,10.0,ENE,6.9,-,0.00,,Partly Cloudy,60,2012-11-14 06:54:00
9:54 PM,73.0,66.0,79,30.14,10.0,NE,8.1,-,0.00,,Scattered Clouds,50,2012-11-14 07:54:00
10:54 PM,73.0,66.0,79,30.15,10.0,ENE,5.8,-,0.00,,Partly Cloudy,60,2012-11-14 08:54:00
11:54 PM,72.0,66.9,84,30.14,10.0,ENE,10.4,-,0.00,Rain,Light Rain,60,2012-11-14 09:54:00